TimeEDT,TemperatureF,Dew PointF,Humidity,Sea Level PressureIn,VisibilityMPH,Wind Direction,Wind SpeedMPH,Gust SpeedMPH,PrecipitationIn,Events,Conditions,WindDirDegrees,DateUTC
12:51 AM,44.1,37.9,79,29.92,10.0,WNW,15.0,23.0,N/A,,Overcast,300,2013-05-26 04:51:00
1:51 AM,44.1,39.0,82,29.91,10.0,NNW,12.7,-,0.00,Rain,Light Rain,330,2013-05-26 05:51:00
2:51 AM,45.0,39.9,82,29.90,10.0,NNW,15.0,21.9,0.04,Rain,Light Rain,330,2013-05-26 06:51:00
3:51 AM,45.0,39.9,82,29.89,10.0,NW,12.7,-,0.00,Rain,Light Rain,320,2013-05-26 07:51:00
4:51 AM,45.0,39.9,82,29.89,10.0,NW,9.2,-,0.00,,Overcast,320,2013-05-26 08:51:00
5:51 AM,45.0,39.0,80,29.91,10.0,WNW,5.8,-,N/A,,Overcast,300,2013-05-26 09:51:00
6:51 AM,46.9,39.0,74,29.92,10.0,WNW,11.5,-,N/A,,Overcast,300,2013-05-26 10:51:00
7:51 AM,48.9,39.0,69,29.94,10.0,NW,15.0,-,N/A,,Mostly Cloudy,310,2013-05-26 11:51:00
8:51 AM,50.0,39.0,66,29.95,10.0,WNW,15.0,21.9,N/A,,Mostly Cloudy,300,2013-05-26 12:51:00
9:51 AM,51.1,39.9,66,29.96,10.0,WNW,21.9,28.8,N/A,,Mostly Cloudy,290,2013-05-26 13:51:00
10:51 AM,51.1,39.9,66,29.96,10.0,NW,17.3,26.5,0.00,,Mostly Cloudy,310,2013-05-26 14:51:00
11:51 AM,54.0,39.9,59,29.97,10.0,WNW,23.0,28.8,0.00,Rain,Light Rain,290,2013-05-26 15:51:00
12:51 PM,52.0,42.1,69,29.98,10.0,West,17.3,26.5,0.00,Rain,Light Rain,280,2013-05-26 16:51:00
1:51 PM,57.0,37.9,49,29.99,10.0,NW,20.7,27.6,0.00,,Mostly Cloudy,320,2013-05-26 17:51:00
2:51 PM,54.0,39.0,57,30.01,10.0,WNW,16.1,29.9,0.00,Rain,Light Rain,290,2013-05-26 18:51:00
3:51 PM,54.0,37.9,55,30.04,10.0,NNW,24.2,31.1,0.00,,Overcast,330,2013-05-26 19:51:00
4:51 PM,54.0,39.0,57,30.06,10.0,NNW,15.0,21.9,0.00,,Overcast,330,2013-05-26 20:51:00
5:51 PM,55.0,39.0,55,30.08,10.0,NNW,8.1,-,N/A,,Mostly Cloudy,340,2013-05-26 21:51:00
6:51 PM,57.9,39.0,49,30.08,10.0,North,6.9,-,N/A,,Mostly Cloudy,350,2013-05-26 22:51:00
7:51 PM,55.0,39.0,55,30.10,10.0,WNW,3.5,-,N/A,,Mostly Cloudy,290,2013-05-26 23:51:00
8:51 PM,46.9,39.9,77,30.10,10.0,Calm,Calm,-,N/A,,Partly Cloudy,0,2013-05-27 00:51:00
9:51 PM,43.0,39.0,86,30.12,10.0,Calm,Calm,-,N/A,,Clear,0,2013-05-27 01:51:00
10:51 PM,42.1,41.0,96,30.13,10.0,Calm,Calm,-,N/A,,Clear,0,2013-05-27 02:51:00
11:51 PM,41.0,37.9,89,30.14,10.0,Calm,Calm,-,N/A,,Clear,0,2013-05-27 03:51:00